N86KM KEYW-KFLL

Flight info

Callsign N86KM
Flight time N/A
Altitude 21000
Route CARNU DVALL DVALL4
Aircraft HDJT/L-SABDGRWY/H

Departure

Time 2026-05-03 21:26
Airport Key West International Airport (KEYW)

Arrival

Time N/A
Airport Fort Lauderdale Hollywood International Airport (KFLL)
Time Latitude Longitude Altitude Speed Heading
2026-05-03 21:14 24.55442 -81.75716 15 ft 0 kts
2026-05-03 21:15 24.55441 -81.75716 15 ft 0 kts
2026-05-03 21:21 24.55442 -81.75716 15 ft 1 kts
2026-05-03 21:21 24.55461 -81.75732 15 ft 7 kts 269°
2026-05-03 21:21 24.55468 -81.75779 15 ft 5 kts 326°
2026-05-03 21:22 24.55505 -81.75782 15 ft 5 kts 359°
2026-05-03 21:22 24.55528 -81.75803 14 ft 7 kts 270°
2026-05-03 21:22 24.55526 -81.75894 12 ft 17 kts 269°
2026-05-03 21:22 24.55525 -81.76043 8 ft 19 kts 271°
2026-05-03 21:23 24.55525 -81.76179 8 ft 16 kts 270°
2026-05-03 21:23 24.55526 -81.76292 8 ft 13 kts 271°
2026-05-03 21:23 24.55525 -81.76384 7 ft 12 kts 263°
2026-05-03 21:23 24.55521 -81.76492 6 ft 17 kts 270°
2026-05-03 21:24 24.55520 -81.76608 7 ft 12 kts 270°
2026-05-03 21:24 24.55521 -81.76634 8 ft 0 kts 284°
2026-05-03 21:24 24.55524 -81.76644 8 ft 5 kts 297°
2026-05-03 21:25 24.55581 -81.76662 9 ft 9 kts
2026-05-03 21:25 24.55608 -81.76623 9 ft 6 kts 93°
2026-05-03 21:25 24.55610 -81.76310 6 ft 78 kts 89°
2026-05-03 21:25 24.55617 -81.75483 69 ft 132 kts 86°
2026-05-03 21:26 24.55652 -81.74452 642 ft 140 kts 73°
2026-05-03 21:26 24.56153 -81.73408 1030 ft 170 kts 42°
2026-05-03 21:26 24.57242 -81.72759 1572 ft 189 kts 14°
2026-05-03 21:26 24.58522 -81.72339 2398 ft 192 kts 15°
2026-05-03 21:27 24.59829 -81.71846 3035 ft 208 kts 16°
2026-05-03 21:27 24.61250 -81.71229 3524 ft 231 kts 31°
2026-05-03 21:27 24.62512 -81.70122 4445 ft 234 kts 35°
2026-05-03 21:27 24.63993 -81.69383 5236 ft 232 kts 12°
2026-05-03 21:28 24.65335 -81.68450 6374 ft 240 kts 45°
2026-05-03 21:28 24.66535 -81.67081 6906 ft 251 kts 38°
2026-05-03 21:28 24.67931 -81.65944 7824 ft 249 kts 30°
2026-05-03 21:28 24.69430 -81.64941 8655 ft 257 kts 32°
2026-05-03 21:29 24.70808 -81.63854 10373 ft 230 kts 29°
2026-05-03 21:29 24.72278 -81.62990 10753 ft 250 kts 25°
2026-05-03 21:29 24.73805 -81.61900 11020 ft 268 kts 34°
2026-05-03 21:29 24.75278 -81.60711 11840 ft 265 kts 31°
2026-05-03 21:30 24.76830 -81.59573 12601 ft 271 kts 31°
2026-05-03 21:30 24.78420 -81.58426 13284 ft 275 kts 27°
2026-05-03 21:30 24.80062 -81.57301 13911 ft 280 kts 28°
2026-05-03 21:30 24.81696 -81.56105 14503 ft 283 kts 30°
2026-05-03 21:31 24.83322 -81.54894 15085 ft 286 kts 30°
2026-05-03 21:31 24.84999 -81.53672 15665 ft 290 kts 29°
2026-05-03 21:31 24.86701 -81.52435 16243 ft 294 kts 29°
2026-05-03 21:31 24.88418 -81.51177 16818 ft 298 kts 29°
2026-05-03 21:32 24.90155 -81.49908 17388 ft 301 kts 29°
2026-05-03 21:32 24.91915 -81.48620 17958 ft 305 kts 29°
2026-05-03 21:32 24.93697 -81.47319 18481 ft 309 kts 29°
2026-05-03 21:32 24.95478 -81.46016 18951 ft 312 kts 29°
2026-05-03 21:33 24.97306 -81.44677 19431 ft 315 kts 29°
2026-05-03 21:33 24.99148 -81.43331 19904 ft 319 kts 29°
2026-05-03 21:33 25.00986 -81.41983 20362 ft 322 kts 29°
2026-05-03 21:33 25.02862 -81.40610 20827 ft 325 kts 28°
2026-05-03 21:34 25.04793 -81.39200 21002 ft 340 kts 28°
2026-05-03 21:34 25.06821 -81.37719 21015 ft 358 kts 29°
2026-05-03 21:34 25.08945 -81.36156 21016 ft 375 kts 29°
2026-05-03 21:34 25.11155 -81.34531 21021 ft 389 kts 29°
2026-05-03 21:35 25.13446 -81.32855 21018 ft 400 kts 29°
2026-05-03 21:35 25.15704 -81.30987 21017 ft 412 kts 35°
2026-05-03 21:35 25.17195 -81.29659 21016 ft 417 kts 35°
2026-05-03 21:35 25.20237 -81.26998 21016 ft 414 kts 34°
2026-05-03 21:36 25.21746 -81.25713 21015 ft 412 kts 34°
2026-05-03 21:36 25.24743 -81.23136 21011 ft 412 kts 34°
2026-05-03 21:36 25.26263 -81.21805 21015 ft 412 kts 35°
2026-05-03 21:36 25.28520 -81.19920 21004 ft 410 kts 28°
2026-05-03 21:37 25.31072 -81.18595 21001 ft 402 kts 14°
2026-05-03 21:37 25.33742 -81.17699 21003 ft 397 kts 10°
2026-05-03 21:37 25.36345 -81.16841 19875 ft 390 kts 13°
2026-05-03 21:37 25.38864 -81.15707 18719 ft 390 kts 20°
2026-05-03 21:38 25.41294 -81.14430 17574 ft 381 kts 20°
2026-05-03 21:38 25.43698 -81.13300 16408 ft 370 kts 16°
2026-05-03 21:38 25.46097 -81.12333 15385 ft 366 kts 15°
2026-05-03 21:38 25.48432 -81.11317 15054 ft 364 kts 18°
2026-05-03 21:39 25.50750 -81.10207 14614 ft 361 kts 19°
2026-05-03 21:39 25.53062 -81.09140 14133 ft 356 kts 17°
2026-05-03 21:39 25.55358 -81.08148 13650 ft 351 kts 17°
2026-05-03 21:39 25.57593 -81.07150 13166 ft 349 kts 18°
2026-05-03 21:40 25.59832 -81.06113 12702 ft 347 kts 18°
2026-05-03 21:40 25.62059 -81.05104 12247 ft 344 kts 18°
2026-05-03 21:40 25.64276 -81.04120 11792 ft 341 kts 18°
2026-05-03 21:40 25.66466 -81.03126 11344 ft 334 kts 18°
2026-05-03 21:41 25.68552 -81.02168 10921 ft 318 kts 18°
2026-05-03 21:41 25.70587 -81.01256 10501 ft 312 kts 18°
2026-05-03 21:41 25.72594 -81.00359 10094 ft 310 kts 18°
2026-05-03 21:41 25.74584 -80.99449 9670 ft 308 kts 18°
2026-05-03 21:42 25.76540 -80.98560 9259 ft 305 kts 18°
2026-05-03 21:42 25.78514 -80.97675 8850 ft 303 kts 18°
2026-05-03 21:42 25.80460 -80.96788 8453 ft 301 kts 19°
2026-05-03 21:42 25.82379 -80.95918 8060 ft 299 kts 19°
2026-05-03 21:43 25.84309 -80.95044 7663 ft 297 kts 19°
2026-05-03 21:43 25.86196 -80.94189 7278 ft 295 kts 19°
2026-05-03 21:43 25.88071 -80.93285 7002 ft 292 kts 25°
2026-05-03 21:43 25.89845 -80.92158 7007 ft 295 kts 27°
2026-05-03 21:44 25.91647 -80.91031 7011 ft 296 kts 26°
2026-05-03 21:44 25.93467 -80.90042 6922 ft 290 kts
2026-05-03 21:44 25.95436 -80.90194 7045 ft 286 kts 343°
2026-05-03 21:44 25.97273 -80.90900 6968 ft 279 kts 339°
2026-05-03 21:45 25.99228 -80.91030 6678 ft 284 kts
2026-05-03 21:45 26.01053 -80.90271 6323 ft 278 kts 27°
2026-05-03 21:45 26.02586 -80.89020 5817 ft 278 kts 40°
2026-05-03 21:45 26.03968 -80.87478 5139 ft 283 kts 47°
2026-05-03 21:46 26.05233 -80.85877 5002 ft 264 kts 49°
2026-05-03 21:46 26.06347 -80.84337 4803 ft 253 kts 53°
2026-05-03 21:46 26.07199 -80.82590 4312 ft 259 kts 70°
2026-05-03 21:46 26.07598 -80.80654 3945 ft 257 kts 84°
2026-05-03 21:47 26.07620 -80.78691 3795 ft 251 kts 94°
2026-05-03 21:47 26.07512 -80.76791 3607 ft 249 kts 95°
2026-05-03 21:47 26.07431 -80.74853 3422 ft 249 kts 92°
2026-05-03 21:47 26.07407 -80.72939 3418 ft 244 kts 90°
2026-05-03 21:48 26.07364 -80.71070 3395 ft 240 kts 94°
2026-05-03 21:48 26.07238 -80.69240 3452 ft 234 kts 95°
2026-05-03 21:48 26.07073 -80.67440 3475 ft 239 kts 99°
2026-05-03 21:48 26.06739 -80.65599 3666 ft 237 kts 110°
2026-05-03 21:49 26.06274 -80.63848 3914 ft 243 kts 90°
2026-05-03 21:49 26.06274 -80.61989 4026 ft 257 kts 74°
2026-05-03 21:49 26.06791 -80.60081 3906 ft 253 kts 72°
2026-05-03 21:49 26.07140 -80.58279 3812 ft 229 kts 86°
2026-05-03 21:50 26.07071 -80.56546 3616 ft 228 kts 95°
2026-05-03 21:50 26.06870 -80.54759 3310 ft 241 kts 99°
2026-05-03 21:50 26.06655 -80.52889 2998 ft 246 kts 96°
2026-05-03 21:50 26.06506 -80.51008 3008 ft 243 kts 92°
2026-05-03 21:51 26.06589 -80.49109 3125 ft 246 kts 84°
2026-05-03 21:51 26.06717 -80.47217 3285 ft 245 kts 83°
2026-05-03 21:51 26.06729 -80.45282 3591 ft 254 kts 94°
2026-05-03 21:51 26.07162 -80.43430 3688 ft 250 kts 85°
2026-05-03 21:52 26.07173 -80.41534 3614 ft 244 kts 92°
2026-05-03 21:52 26.07126 -80.39639 3520 ft 247 kts 92°
2026-05-03 21:52 26.07032 -80.37754 3501 ft 237 kts 97°
2026-05-03 21:52 26.06799 -80.35959 3341 ft 227 kts 99°
2026-05-03 21:53 26.06556 -80.34270 3031 ft 218 kts 97°
2026-05-03 21:53 26.06407 -80.32607 2660 ft 214 kts 94°
2026-05-03 21:53 26.06345 -80.30983 2562 ft 205 kts 88°
2026-05-03 21:53 26.06416 -80.29415 2386 ft 207 kts 87°
2026-05-03 21:54 26.06496 -80.27820 2159 ft 203 kts 85°
2026-05-03 21:54 26.06602 -80.26268 1933 ft 197 kts 84°
2026-05-03 21:54 26.06642 -80.24826 1728 ft 169 kts 91°
2026-05-03 21:54 26.06589 -80.23603 1499 ft 157 kts 89°
2026-05-03 21:55 26.06587 -80.22393 1247 ft 156 kts 88°
2026-05-03 21:55 26.06582 -80.21185 1009 ft 155 kts 88°
2026-05-03 21:55 26.06574 -80.20396 837 ft 153 kts 89°
2026-05-03 21:56 26.06595 -80.18604 505 ft 145 kts 88°
2026-05-03 21:56 26.06587 -80.17753 337 ft 150 kts 85°
2026-05-03 21:56 26.06597 -80.16583 170 ft 150 kts 89°
2026-05-03 21:57 26.06624 -80.15473 68 ft 128 kts 82°
2026-05-03 21:57 26.06552 -80.14435 390 ft 140 kts 90°
2026-05-03 21:57 26.06492 -80.13276 869 ft 152 kts 90°
2026-05-03 21:57 26.06436 -80.12088 1300 ft 155 kts 90°
2026-05-03 21:58 26.06430 -80.10878 1688 ft 161 kts 88°
2026-05-03 21:58 26.06500 -80.09601 1963 ft 166 kts 84°
2026-05-03 21:58 26.06602 -80.08332 2210 ft 168 kts 84°
2026-05-03 21:58 26.06503 -80.07056 2429 ft 172 kts 117°
2026-05-03 21:59 26.05493 -80.06369 2475 ft 179 kts 179°
2026-05-03 21:59 26.04361 -80.06780 2569 ft 172 kts 221°
2026-05-03 21:59 26.03715 -80.07843 2607 ft 165 kts 252°
2026-05-03 21:59 26.03329 -80.09045 2588 ft 165 kts 251°
2026-05-03 22:00 26.02938 -80.10236 2602 ft 162 kts 251°
2026-05-03 22:00 26.02553 -80.11427 2551 ft 165 kts 252°
2026-05-03 22:00 26.02168 -80.12628 2546 ft 164 kts 252°
2026-05-03 22:00 26.01927 -80.13829 2648 ft 161 kts 272°
2026-05-03 22:01 26.01907 -80.15073 2854 ft 162 kts 268°
2026-05-03 22:01 26.01866 -80.16334 2967 ft 165 kts 269°
2026-05-03 22:01 26.01839 -80.17652 2939 ft 176 kts 269°
2026-05-03 22:01 26.01830 -80.18978 3090 ft 164 kts 270°
2026-05-03 22:02 26.01856 -80.20209 3156 ft 158 kts 272°